Weather History for Grand Forks, ND

Change the Weather History Date:

Friday, July 26, 2013

  Actual Average Record
Temperature  
Mean Temperature 59 °F 69 °F  
Max Temperature 70 °F 82 °F 103 °F (1941)
Min Temperature 47 °F 56 °F 39 °F (1981)
Degree Days  
Heating Degree Days 6 1  
Month to date heating degree days 15 27  
Since 1 June heating degree days 92 130  
Since 1 July heating degree days 15 27  
Cooling Degree Days 0 5  
Month to date cooling degree days 164 120  
Year to date cooling degree days 286 212  
Since 1 June cooling degree days 277 195  
Growing Degree Days 9 (Base 50)    
Moisture  
Dew Point 48 °F    
Average Humidity 65    
Maximum Humidity 93    
Minimum Humidity 37    
Precipitation  
Precipitation T in 0.09 in 0.90 in (1955)
Month to date precipitation 1.96 2.71  
Year to date precipitation 13.23 11.91  
Snow  
Snow 0.00 in 0.00 in - ()
Month to date snowfall 0.0 0.0  
Since 1 June snowfall 0.0 0.0  
Since 1 July snowfall 0.0 0.0  
Snow Depth 0.00 in    
Sea Level Pressure  
Sea Level Pressure 30.12 in    
Wind  
Wind Speed 15 mph (North)    
Max Wind Speed 25 mph    
Max Gust Speed 31 mph    
Visibility 10 miles    
Events Rain    
T = Trace of Precipitation, MM = Missing Value Source: NWS Daily Summary

Daily Weather History Graph

Daily Weather History Graph

Search for Another Location

Airport:

Trip Planner

Search our weather history database for the weather conditions in past years. The results will help you decide how hot, cold, wet, or windy it might be!

Date:

Astronomy

Jul. 26, 2013 Rise Set
Actual Time 5:57 AM CDT 9:11 PM CDT
Civil Twilight 5:20 AM CDT 9:49 PM CDT
Nautical Twilight 4:31 AM CDT 10:37 PM CDT
Astronomical Twilight 3:29 AM CDT 11:38 PM CDT
Moon 10:58 PM CDT 11:01 AM CDT
Length of Visible Light 16h 28m
Length of Day
15h 13m
Waning Gibbous, 80% of the Moon is Illuminated
Jul 26
Waning Gibbous
Jul 29
Last Quarter
Aug 6
New
Aug 14
First Quarter
Aug 20
Full

Hourly Weather History & Observations

Time (CDT) Temp. Dew Point Humidity Pressure Visibility Wind Dir Wind Speed Gust Speed Precip Events Conditions
12:53 AM 57.0 °F 54.0 °F 89% 29.96 in 10.0 mi NNW 17.3 mph 23.0 mph N/A   Overcast
1:53 AM 55.9 °F 54.0 °F 93% 29.98 in 10.0 mi North 16.1 mph 24.2 mph 0.00 in Rain Light Rain
2:53 AM 55.0 °F 54.0 °F 96% 30.00 in 10.0 mi North 18.4 mph 26.5 mph 0.00 in Rain Light Rain
3:40 AM 55.4 °F 51.8 °F 88% 30.02 in 10.0 mi North 15.0 mph - 0.00 in   Overcast
3:53 AM 54.0 °F 52.0 °F 93% 30.03 in 10.0 mi North 16.1 mph 23.0 mph 0.00 in   Mostly Cloudy
4:53 AM 53.1 °F 50.0 °F 89% 30.05 in 10.0 mi North 16.1 mph 23.0 mph N/A   Clear
5:53 AM 53.1 °F 51.1 °F 93% 30.07 in 10.0 mi NNW 15.0 mph - N/A   Partly Cloudy
6:53 AM 53.1 °F 50.0 °F 89% 30.11 in 10.0 mi North 12.7 mph - N/A   Partly Cloudy
7:53 AM 55.0 °F 50.0 °F 83% 30.12 in 10.0 mi North 11.5 mph 20.7 mph N/A   Partly Cloudy
8:53 AM 57.9 °F 50.0 °F 75% 30.14 in 10.0 mi North 13.8 mph 21.9 mph N/A   Clear
9:53 AM 60.1 °F 48.9 °F 67% 30.16 in 10.0 mi North 16.1 mph - N/A   Clear
10:53 AM 63.0 °F 46.9 °F 56% 30.18 in 10.0 mi NNW 19.6 mph 28.8 mph N/A   Partly Cloudy
11:53 AM 63.0 °F 46.0 °F 54% 30.18 in 10.0 mi NNW 18.4 mph 29.9 mph N/A   Mostly Cloudy
12:53 PM 66.0 °F 46.0 °F 48% 30.16 in 10.0 mi NNE 23.0 mph 29.9 mph N/A   Mostly Cloudy
1:53 PM 66.0 °F 45.0 °F 47% 30.17 in 10.0 mi North 18.4 mph - N/A   Mostly Cloudy
2:53 PM 66.9 °F 45.0 °F 45% 30.17 in 10.0 mi North 17.3 mph 26.5 mph N/A   Mostly Cloudy
3:53 PM 68.0 °F 44.1 °F 42% 30.17 in 10.0 mi North 18.4 mph 25.3 mph N/A   Mostly Cloudy
4:53 PM 68.0 °F 41.0 °F 37% 30.17 in 10.0 mi North 19.6 mph - N/A   Mostly Cloudy
5:53 PM 66.9 °F 41.0 °F 39% 30.16 in 10.0 mi North 18.4 mph 24.2 mph N/A   Scattered Clouds
6:53 PM 64.0 °F 43.0 °F 46% 30.16 in 10.0 mi North 11.5 mph 21.9 mph N/A   Scattered Clouds
7:53 PM 63.0 °F 43.0 °F 48% 30.17 in 10.0 mi NNE 13.8 mph - N/A   Scattered Clouds
8:53 PM 61.0 °F 44.1 °F 54% 30.17 in 10.0 mi NNE 15.0 mph - N/A   Mostly Cloudy
9:53 PM 59.0 °F 46.9 °F 64% 30.19 in 10.0 mi NE 6.9 mph - N/A   Mostly Cloudy
10:53 PM 50.0 °F 45.0 °F 83% 30.20 in 10.0 mi North 5.8 mph - N/A   Scattered Clouds
11:53 PM 48.9 °F 45.0 °F 86% 30.19 in 10.0 mi NW 4.6 mph - N/A   Partly Cloudy